Weather History for KOEO - January, 2013

Change the Weather History Date:

Thursday, January 3, 2013

  Actual Average (KMSP) Record (KMSP)
Temperature  
Mean Temperature 14 °F 16 °F  
Max Temperature 21 °F 24 °F 46 °F (1880)
Min Temperature 8 °F 8 °F -26 °F (1887)
Degree Days  
Heating Degree Days 50 49  
Month to date heating degree days 147  
Since 1 July heating degree days 3170  
Cooling Degree Days 0 0  
Month to date cooling degree days 0  
Year to date cooling degree days 0  
Moisture  
Dew Point 11 °F    
Average Humidity 83    
Maximum Humidity 100    
Minimum Humidity 67    
Precipitation  
Precipitation 0.00 in 0.04 in 0.76 in (1906)
Month to date precipitation 0.10  
Year to date precipitation 0.10  
Snow  
Snow 0.00 in 0.30 in 9.00 in (1906)
Month to date snowfall 1.1  
Since 1 July snowfall 22.9  
Snow Depth -    
Sea Level Pressure  
Sea Level Pressure 30.17 in    
Wind  
Wind Speed 6 mph (WSW)    
Max Wind Speed 14 mph    
Max Gust Speed 17 mph    
Visibility 8 miles    
Events Snow    
T = Trace of Precipitation, MM = Missing Value Source: NWS Daily Summary

Daily Weather History Graph

Daily Weather History Graph

Search for Another Location

Airport or City:

Trip Planner

Search our weather history database for the weather conditions in past years. The results will help you decide how hot, cold, wet, or windy it might be!

Date:

Astronomy

Jan. 03, 2013 Rise Set
Actual Time 7:50 AM CST 4:41 PM CST
Civil Twilight 7:16 AM CST 5:14 PM CST
Nautical Twilight 6:39 AM CST 5:51 PM CST
Astronomical Twilight 6:03 AM CST 6:27 PM CST
Moon 11:37 PM CST 10:43 AM CST
Length of Visible Light 9h 58m
Length of Day
8h 50m
Waning Gibbous, 65% of the Moon is Illuminated
Jan 3
Waning Gibbous
Jan 4
Last Quarter
Jan 11
New
Jan 18
First Quarter
Jan 26
Full

Hourly Weather History & Observations

Time (CST) Temp. Windchill Dew Point Humidity Pressure Visibility Wind Dir Wind Speed Gust Speed Precip Events Conditions
12:15 AM 17.6 °F - 14.0 °F 86% 30.08 in 4.0 mi Calm Calm - N/A Snow Light Snow
12:35 AM 17.6 °F - 14.0 °F 86% 30.08 in 4.0 mi Calm Calm - N/A Snow Light Snow
12:55 AM 17.6 °F - 14.0 °F 86% 30.09 in 5.0 mi Calm Calm - N/A   Overcast
1:15 AM 17.6 °F - 15.8 °F 93% 30.09 in 5.0 mi Calm Calm - N/A   Overcast
1:35 AM 17.6 °F - 15.8 °F 93% 30.09 in 5.0 mi Calm Calm - N/A   Overcast
1:55 AM 17.6 °F - 15.8 °F 93% 30.09 in 5.0 mi Calm Calm - N/A   Overcast
2:15 AM 17.6 °F - 17.6 °F 100% 30.10 in 5.0 mi Calm Calm - N/A Snow Light Snow
2:35 AM 19.4 °F 14.3 °F 17.6 °F 93% 30.11 in 5.0 mi West 3.5 mph - N/A   Overcast
2:55 AM 21.2 °F 12.6 °F 19.4 °F 93% 30.11 in 7.0 mi West 6.9 mph - N/A   Overcast
3:15 AM 21.2 °F 12.6 °F 19.4 °F 93% 30.11 in 7.0 mi West 6.9 mph - N/A Snow Light Snow
3:35 AM 21.2 °F 11.7 °F 19.4 °F 93% 30.11 in 7.0 mi West 8.1 mph - N/A   Overcast
3:55 AM 21.2 °F 11.7 °F 19.4 °F 93% 30.12 in 7.0 mi West 8.1 mph - N/A Snow Light Snow
4:15 AM 21.2 °F 10.9 °F 17.6 °F 86% 30.12 in 10.0 mi West 9.2 mph - N/A   Overcast
4:35 AM 21.2 °F 10.9 °F 17.6 °F 86% 30.13 in 7.0 mi West 9.2 mph - N/A Snow Light Snow
4:55 AM 21.2 °F 9.5 °F 17.6 °F 86% 30.14 in 10.0 mi WNW 11.5 mph - N/A Snow Light Snow
5:15 AM 19.4 °F 9.5 °F 17.6 °F 93% 30.14 in 7.0 mi West 8.1 mph - N/A Snow Light Snow
5:35 AM 19.4 °F 7.9 °F 17.6 °F 93% 30.15 in 7.0 mi West 10.4 mph - N/A Snow Light Snow
5:55 AM 19.4 °F 7.9 °F 15.8 °F 86% 30.16 in 10.0 mi West 10.4 mph - N/A   Overcast
6:15 AM 19.4 °F 7.2 °F 15.8 °F 86% 30.17 in 10.0 mi WNW 11.5 mph - N/A   Overcast
6:35 AM 19.4 °F 7.2 °F 14.0 °F 80% 30.18 in 10.0 mi WNW 11.5 mph - N/A   Overcast
6:55 AM 19.4 °F 9.5 °F 14.0 °F 80% 30.18 in 10.0 mi WNW 8.1 mph - N/A   Overcast
7:35 AM 17.6 °F 6.4 °F 14.0 °F 86% 30.19 in 10.0 mi WNW 9.2 mph - N/A   Overcast
7:55 AM 17.6 °F 8.2 °F 14.0 °F 86% 30.19 in 7.0 mi NW 6.9 mph - N/A Snow Light Snow
8:15 AM 17.6 °F 7.3 °F 14.0 °F 86% 30.19 in 10.0 mi NW 8.1 mph - N/A   Overcast
8:35 AM 17.6 °F 6.4 °F 14.0 °F 86% 30.20 in 10.0 mi NW 9.2 mph 17.3 mph N/A Snow Light Snow
8:55 AM 17.6 °F 6.4 °F 14.0 °F 86% 30.21 in 7.0 mi NW 9.2 mph - N/A Snow Light Snow
9:15 AM 17.6 °F 4.3 °F 14.0 °F 86% 30.21 in 5.0 mi WNW 12.7 mph - N/A Snow Light Snow
9:35 AM 17.6 °F 7.3 °F 12.2 °F 79% 30.22 in 5.0 mi NW 8.1 mph - N/A Snow Light Snow
9:55 AM 17.6 °F 6.4 °F 12.2 °F 79% 30.23 in 5.0 mi NW 9.2 mph - N/A Snow Light Snow
10:15 AM 17.6 °F 6.4 °F 12.2 °F 79% 30.25 in 7.0 mi WNW 9.2 mph - N/A Snow Light Snow
10:35 AM 17.6 °F 6.4 °F 12.2 °F 79% 30.25 in 7.0 mi NW 9.2 mph - N/A Snow Light Snow
10:55 AM 17.6 °F 8.2 °F 12.2 °F 79% 30.24 in 7.0 mi WNW 6.9 mph - N/A Snow Light Snow
11:15 AM 17.6 °F 6.4 °F 12.2 °F 79% 30.24 in 2.5 mi WNW 9.2 mph - N/A Snow Light Snow
11:35 AM 17.6 °F 6.4 °F 12.2 °F 79% 30.23 in 4.0 mi West 9.2 mph - N/A Snow Light Snow
11:55 AM 17.6 °F 8.2 °F 12.2 °F 79% 30.23 in 7.0 mi West 6.9 mph - N/A Snow Light Snow
12:15 PM 17.6 °F 5.7 °F 12.2 °F 79% 30.22 in 7.0 mi WSW 10.4 mph - N/A Snow Light Snow
12:35 PM 17.6 °F 7.3 °F 12.2 °F 79% 30.21 in 10.0 mi West 8.1 mph - N/A Snow Light Snow
12:55 PM 17.6 °F 5.7 °F 10.4 °F 73% 30.21 in 10.0 mi West 10.4 mph - N/A Snow Light Snow
1:15 PM 17.6 °F 8.2 °F 10.4 °F 73% 30.21 in 10.0 mi West 6.9 mph - N/A   Scattered Clouds
1:35 PM 17.6 °F 6.4 °F 10.4 °F 73% 30.21 in 10.0 mi West 9.2 mph - N/A   Clear
1:55 PM 17.6 °F 5.0 °F 10.4 °F 73% 30.21 in 10.0 mi WSW 11.5 mph - N/A   Clear
2:15 PM 17.6 °F 8.2 °F 10.4 °F 73% 30.21 in 10.0 mi WSW 6.9 mph - N/A   Clear
2:35 PM 17.6 °F 5.0 °F 10.4 °F 73% 30.21 in 10.0 mi WSW 11.5 mph - N/A   Clear
2:55 PM 17.6 °F 4.3 °F 10.4 °F 73% 30.21 in 10.0 mi WSW 12.7 mph - N/A   Clear
3:15 PM 17.6 °F 8.2 °F 8.6 °F 68% 30.21 in 10.0 mi WSW 6.9 mph - N/A   Clear
3:35 PM 15.8 °F 2.1 °F 8.6 °F 73% 30.21 in 10.0 mi WSW 12.7 mph - N/A   Clear
3:55 PM 14.0 °F -0.8 °F 8.6 °F 79% 30.22 in 10.0 mi WSW 13.8 mph - N/A   Clear
4:15 PM 14.0 °F -0.8 °F 5.0 °F 67% 30.22 in 10.0 mi WSW 13.8 mph - N/A   Clear
4:35 PM 12.2 °F -0.2 °F 5.0 °F 73% 30.22 in 10.0 mi SW 9.2 mph - N/A   Clear
4:55 PM 12.2 °F 1.7 °F 5.0 °F 73% 30.22 in 10.0 mi WSW 6.9 mph - N/A   Clear
5:15 PM 10.4 °F -1.5 °F 5.0 °F 79% 30.22 in 10.0 mi WSW 8.1 mph - N/A   Clear
5:35 PM 10.4 °F -1.5 °F 3.2 °F 73% 30.21 in 10.0 mi WSW 8.1 mph - N/A   Clear
5:55 PM 10.4 °F 0.8 °F 3.2 °F 73% 30.21 in 10.0 mi SW 5.8 mph - N/A   Clear
6:15 PM 12.2 °F 1.7 °F 5.0 °F 73% 30.20 in 10.0 mi SSW 6.9 mph - N/A   Clear
6:35 PM 12.2 °F 0.7 °F 5.0 °F 73% 30.20 in 10.0 mi SW 8.1 mph - N/A   Clear
6:55 PM 10.4 °F 0.8 °F 5.0 °F 79% 30.19 in 10.0 mi SSW 5.8 mph - N/A   Clear
7:15 PM 12.2 °F -1.0 °F 6.8 °F 79% 30.19 in 10.0 mi SW 10.4 mph - N/A   Clear
7:35 PM 12.2 °F -0.2 °F 6.8 °F 79% 30.18 in 10.0 mi SW 9.2 mph - N/A   Clear
7:55 PM 12.2 °F 1.7 °F 6.8 °F 79% 30.17 in 10.0 mi SW 6.9 mph - N/A   Clear
8:15 PM 12.2 °F 2.9 °F 8.6 °F 85% 30.16 in 10.0 mi SSW 5.8 mph - N/A   Clear
8:35 PM 12.2 °F 2.9 °F 8.6 °F 85% 30.15 in 10.0 mi SSW 5.8 mph - N/A   Clear
8:55 PM 12.2 °F 1.7 °F 8.6 °F 85% 30.14 in 10.0 mi SSW 6.9 mph - N/A   Clear
9:15 PM 12.2 °F 4.3 °F 8.6 °F 85% 30.14 in 10.0 mi SSW 4.6 mph - N/A   Clear
9:35 PM 8.6 °F 0.1 °F 5.0 °F 85% 30.14 in 10.0 mi South 4.6 mph - N/A   Clear
9:55 PM 8.6 °F 0.1 °F 5.0 °F 85% 30.13 in 10.0 mi South 4.6 mph - N/A   Clear
10:15 PM 8.6 °F 0.1 °F 6.8 °F 92% 30.12 in 10.0 mi South 4.6 mph - N/A   Clear
10:35 PM 8.6 °F -3.7 °F 5.0 °F 85% 30.11 in 10.0 mi SSE 8.1 mph - N/A   Clear
10:55 PM 8.6 °F -2.6 °F 6.8 °F 92% 30.11 in 10.0 mi SSE 6.9 mph - N/A   Clear
11:15 PM 8.6 °F -2.6 °F 6.8 °F 92% 30.10 in 10.0 mi SSE 6.9 mph - N/A   Clear
11:35 PM 8.6 °F -4.7 °F 5.0 °F 85% 30.09 in 10.0 mi South 9.2 mph - N/A   Clear
11:55 PM 10.4 °F -0.4 °F 8.6 °F 92% 30.08 in 10.0 mi SSW 6.9 mph - N/A   Clear